If you wish to contribute or participate in the discussions about articles you are invited to join SKYbrary as a registered user

 Actions

Yamagata Airport

From SKYbrary Wiki

RJSC
Airport
ICAO: RJSC – IATA: GAJ
Summary
Name Yamagata Airport
Region Asia and Pacific
Territory Japan JP.gif
Location Higashine, Yamagata Prefecture
Serving Yamagata
Elevation 105.156 m <br />345 ft <br />345 ft105.156 m <br />
Coordinates 38° 24' 38.28" N, 140° 21' 59.21" E
Runways
Designator Length Width Surface ROPS
1/19 1999 m6,558.399 ft <br /> 46 m150.919 ft <br /> ASP yes/yes


METAR
Observation RJSC 251000Z 08007KT 9999 FEW020 BKN040 18/15 Q1025
Station Yamagata Airport
Date/Time 25 September 2021 10:00:00
Wind direction 80°
Wind speed 07 kts
Lowest cloud amount few clouds
Temperature 18°C
Dew point 15°C
Humidity 82%
QNH 1025 hPa
Weather condition n/a

Airport 23 km12.419 nm <br />23,000 m <br />75,459.318 ft <br /> north of the city of Yamagata, Japan.

Climatology

Humid subtropical climate (Köppen climate classification Cfa).

Maps

Terrain

Loading map...

Airport Layout

Loading map...


Accidents & Serious Incidents at or in vicinity of RJSC

None on SKYbrary